Location: Litvinovka
(48.6667°N, 34.3500°E)
Time: 16:08:53
(UTC+00:00)

Cosmos 2082 Rocket - Pass Details

Date: 18 September 2020
Orbit: 834 x 852 km, 71.0° (Epoch: 21 October)

Event Time Altitude Azimuth Distance (km) Brightness Sun altitude
Rises 18:57:21 0° 334° (NNW) 3,393 6.4 -29.2°
Reaches altitude 10° 18:59:54 10° 340° (NNW) 2,456 5.4 -29.5°
Enters shadow 19:04:23 44° 25° (NNE) 1,153 2.9 -30.1°
